Regional Weather Roundup
Issued by NWS

Home | Current Version | Previous Version | Text Only | Print | Product List | Glossary On
Versions: 1 2 3 4 5 6 7 8 9 10 11 12 13 14 15 16 17 18 19 20 21 22 23 24 25 26 27 28
000
ASUS43 KDMX 310607
RWRIA

WEATHER ROUNDUP FOR IOWA
NATIONAL WEATHER SERVICE DES MOINES IA
100 AM CDT FRI OCT 31 2014

NOTE: "FAIR" INDICATES FEW OR NO CLOUDS BELOW 12,000 FEET WITH NO
SIGNIFICANT WEATHER AND/OR OBSTRUCTIONS TO VISIBILITY.

* - THESE STATIONS ARE NOT NWS STATIONS...THUS NOT UNDER NWS
QUALITY CONTROL.  THEY ALSO DO NOT REPORT WEATHER SUCH
AS PRECIPITATION OR FOG.

IAZ001>003-012>014-020>022-031>034-043>046-310700-
   NORTHWEST IOWA

CITY           SKY/WX    TMP DP  RH WIND       PRES   REMARKS
CARROLL *      CLOUDY    37  27  65 N22G32    30.36S WCI  27
CHEROKEE *     CLOUDY    34  23  63 N17G24    30.43R WCI  23
DENISON *      CLOUDY    34  25  69 N21       30.39R WCI  22
LE MARS *      MOCLDY    32  21  64 N18       30.46S WCI  20
ORANGE CITY *  PTCLDY    32  21  64 N10       30.45R WCI  24
SHELDON *      CLEAR     30  21  69 N13       30.44R WCI  20
SIOUX CITY     CLOUDY    36  23  59 N13       30.47R WCI  27
6HR MIN TEMP:  36; 6HR MAX TEMP:  50;

SPENCER        CLEAR     32  18  56 N17G28    30.41R WCI  21
6HR MIN TEMP:  32; 6HR MAX TEMP:  45;

STORM LAKE *   CLOUDY    34  23  64 N22G32    30.40R WCI  22
$$

IAZ055>058-069>071-079>083-090>094-310700-
   SOUTHWEST IOWA

CITY           SKY/WX    TMP DP  RH WIND       PRES   REMARKS
ATLANTIC *     CLOUDY    39  30  70 N23G32    30.36R WCI  29
AUDUBON *      MOCLDY    37  25  60 N17G29    30.37R WCI  28
CLARINDA *     CLOUDY    45  34  65 N21G31    30.34R
COUNCIL BLFS * CLOUDY    39  30  70 N18G26    30.37R WCI  30
CRESTON *      CLOUDY    41  32  70 N20G29    30.30R
HARLAN  *      CLOUDY    37  28  70 N24G31    30.41R WCI  26
LAMONI         LGT RAIN  47  37  68 N15G28    30.24R
6HR MIN TEMP:  47; 6HR MAX TEMP:  54; 6HR PCP: TRACE;

RED OAK *      CLOUDY    41  32  70 N16G28    30.36R
SHENANDOAH *   CLOUDY    43  34  70 N24G35    30.36R
$$

IAZ047>049-059>061-072>074-084-310700-
   CENTRAL IOWA

CITY           SKY/WX    TMP DP  RH WIND       PRES   REMARKS
AMES           MOCLDY    40  26  57 N21G38    30.30R WCI  30
6HR MIN TEMP:  40; 6HR MAX TEMP:  54;

ANKENY *       CLOUDY    41  28  60 NW20G36   30.30R
CHARITON *     CLOUDY    46  34  61 N26G39    30.24R
DES MOINES     CLOUDY    44  31  60 N22G37    30.29R
6HR MIN TEMP:  44; 6HR MAX TEMP:  56; 6HR PCP: TRACE;

GRINNELL*      CLOUDY    45  32  61 N15G22    30.23R
KNOXVILLE *    CLOUDY    46  34  61 NW21      30.22R
MARSHALLTOWN   CLOUDY    41  29  62 N23G33    30.26R
6HR MIN TEMP:  41; 6HR MAX TEMP:  53; 6HR PCP: TRACE;

PELLA *        CLOUDY    46  35  64 N17G25    30.24R
PERRY *        CLOUDY    41  30  65 N17G25    30.33R
$$

IAZ004>006-015-016-023>025-035-036-310700-
   NORTH CENTRAL IOWA

CITY           SKY/WX    TMP DP  RH WIND       PRES   REMARKS
ALGONA *       PTCLDY    34  21  60 N17G30    30.37R WCI  23
CLARION *      PTCLDY    36  25  64 N15G24    30.32R WCI  26
ESTHERVILLE    CLEAR     30  18  60 N18       30.39R WCI  18
6HR MIN TEMP:  30; 6HR MAX TEMP:  44;

FORT DODGE *   CLOUDY    37  21  52 N10G18    30.35R WCI  30
MASON CITY     MOCLDY    34  17  50 N24G35    30.32R WCI  21
6HR MIN TEMP:  34; 6HR MAX TEMP:  47;

FOREST CITY *  PTCLDY    34  19  55 N22G36    30.33R WCI  22
IOWA FALLS *     N/A     37  27  65 NW23      30.29R WCI  26
$$

IAZ007>011-017>019-026>030-037>042-050>054-066-310700-
   NORTHEAST IOWA

CITY           SKY/WX    TMP DP  RH WIND       PRES   REMARKS
CEDAR RAPIDS   CLOUDY    45  33  63 N24G33    30.17R
6HR MIN TEMP:  45; 6HR MAX TEMP:  50;

CHARLES CITY * CLOUDY    39  23  52 N25G36    30.26R WCI  28
CLINTON *      CLOUDY    46  37  71 NW13G18   30.13S
DECORAH *      CLOUDY    37  25  60 N22G33    30.20R WCI  27
DUBUQUE        CLOUDY    43  32  65 N21G28    30.13R
6HR MIN TEMP:  42; 6HR MAX TEMP:  46;

MONTICELLO *   CLOUDY    45  30  57 N21G31    30.16R
OELWEIN *      CLOUDY    41  27  56 N22G30    30.21R
WATERLOO       CLOUDY    41  26  55 N23G30    30.23R
6HR MIN TEMP:  41; 6HR MAX TEMP:  50; 6HR PCP: TRACE;

$$

IAZ064-065-067-068-078-310700-
   EAST CENTRAL IOWA

CITY           SKY/WX    TMP DP  RH WIND       PRES   REMARKS
DAVENPORT      CLOUDY    47  37  68 NW15      30.12S
6HR MIN TEMP:  46; 6HR MAX TEMP:  48;

IOWA CITY      CLOUDY    48  37  65 N15G24    30.17R
6HR MIN TEMP:  48; 6HR MAX TEMP:  51;

MT. PLEASANT * CLOUDY    47  39  76 NW12G17   30.15R
MUSCATINE *    CLOUDY    50  37  62 N14G22    30.14S
QUAD CITIES    CLOUDY    49  37  63 NW13      30.11R
6HR MIN TEMP:  45; 6HR MAX TEMP:  49;

$$

IAZ062-063-075>077-085>089-095>099-310700-
   SOUTHEAST IOWA

CITY           SKY/WX    TMP DP  RH WIND       PRES   REMARKS
BURLINGTON     CLOUDY    47  41  80 NW7       30.12S
6HR MIN TEMP:  47; 6HR MAX TEMP:  50; 6HR PCP: TRACE;

FAIRFIELD *    CLOUDY    48  36  61 N14G22    30.17R
FORT MADISON * CLOUDY    48  45  87 NW3       30.14R
KEOKUK *       CLOUDY    48  43  81 NW5       30.12S
OSKALOOSA *    CLOUDY    47  36  65 N22G29    30.20R
CENTERVILLE *  MOCLDY    48  37  66 N13G21    30.21R
OTTUMWA        LGT RAIN  48  37  65 N20G26    30.19R
6HR MIN TEMP:  48; 6HR MAX TEMP:  53; 6HR PCP: TRACE;

WASHINGTON *   CLOUDY    48  39  71 N16G22    30.16R
$$

ABBREVIATIONS USED IN REMARKS
   TC - TEMPERATURES IN CELSIUS
  WCI - WIND CHILL INDEX
   HX - HEAT INDEX
  VSB - VISIBILITY
$$




USA.gov is the U.S. government's official web portal to all federal, state and local government web resources and services.